Pine River, MN

5:28 PM CDT on April 19, 2018 (GMT -0500)
Pine River Regional

Weather History for KPWC - September, 2013

Change the Weather History Date:

Sunday, September 15, 2013

  Actual Average Record
Temperature  
Mean Temperature 49 °F -  
Max Temperature 59 °F 67 °F 80 °F (2006)
Min Temperature 39 °F 46 °F 24 °F (2007)
Degree Days  
Heating Degree Days 16    
Moisture  
Dew Point 49 °F    
Average Humidity 89    
Maximum Humidity 100    
Minimum Humidity 63    
Precipitation  
Precipitation 0.00 in - - ()
Sea Level Pressure  
Sea Level Pressure 30.19 in    
Wind  
Wind Speed 4 mph (NNE)    
Max Wind Speed 13 mph    
Max Gust Speed 20 mph    
Visibility 10 miles    
Events Rain    
Averages and records for this station are not official NWS values.
T = Trace of Precipitation, MM = Missing Value Source: NWS Daily Summary

Daily Weather History Graph

Daily Weather History Graph

Search for Another Location

Airport or City:

Astronomy

Sep. 15, 2013 Rise Set
Actual Time 6:55 AM CDT 7:28 PM CDT
Civil Twilight 6:25 AM CDT 7:59 PM CDT
Nautical Twilight 5:49 AM CDT 8:35 PM CDT
Astronomical Twilight 5:11 AM CDT 9:12 PM CDT
Moon 5:07 PM CDT (9/15) 2:21 AM CDT (9/15)
Length of Visible Light 13h 33m
Length of Day
12h 32m
Waxing Gibbous, 82% of the Moon is Illuminated
Sep 15
Waxing Gibbous
Sep 19
Full
Sep 26
Last Quarter
Oct 4
New
Oct 11
First Quarter

Hourly Weather History & Observations

Time (CDT) Temp. Dew Point Humidity Pressure Visibility Wind Dir Wind Speed Gust Speed Precip Events Conditions
12:12 AM 53.6 °F 53.6 °F 100% 29.98 in 10.0 mi Calm Calm - N/A   Overcast
12:32 AM 53.6 °F 53.6 °F 100% 29.99 in 10.0 mi Calm Calm - N/A   Overcast
12:53 AM 55.4 °F 55.4 °F 100% 29.99 in 10.0 mi Calm Calm - N/A   Overcast
1:13 AM 55.4 °F 55.4 °F 100% 29.99 in 10.0 mi Calm Calm - N/A   Overcast
1:32 AM 55.4 °F 55.4 °F 100% 29.98 in 10.0 mi Calm Calm - N/A   Overcast
1:53 AM 53.6 °F 53.6 °F 100% 29.99 in 10.0 mi Calm Calm - N/A   Overcast
2:13 AM 55.4 °F 55.4 °F 100% 29.99 in 10.0 mi North 4.6 mph - N/A   Overcast
2:32 AM 55.4 °F 55.4 °F 100% 30.00 in 10.0 mi NNE 3.5 mph - N/A   Overcast
2:53 AM 55.4 °F 55.4 °F 100% 30.00 in 10.0 mi Calm Calm - N/A   Overcast
3:12 AM 55.4 °F 55.4 °F 100% 30.01 in 10.0 mi Calm Calm - N/A   Overcast
3:33 AM 55.4 °F 55.4 °F 100% 30.00 in 10.0 mi Calm Calm - N/A   Overcast
3:52 AM 55.4 °F 55.4 °F 100% 30.01 in 10.0 mi Calm Calm - N/A   Overcast
4:12 AM 55.4 °F 55.4 °F 100% 30.01 in 10.0 mi Calm Calm - N/A   Overcast
4:33 AM 55.4 °F 55.4 °F 100% 30.01 in 10.0 mi Calm Calm - N/A   Overcast
4:53 AM 55.4 °F 55.4 °F 100% 30.02 in 10.0 mi Calm Calm - N/A   Overcast
5:12 AM 55.4 °F 55.4 °F 100% 30.03 in 10.0 mi Calm Calm - N/A   Overcast
5:32 AM 55.4 °F 55.4 °F 100% 30.03 in 10.0 mi Calm Calm - N/A   Overcast
5:53 AM 55.4 °F 55.4 °F 100% 30.05 in 10.0 mi Calm Calm - N/A   Overcast
6:13 AM 55.4 °F 55.4 °F 100% 30.05 in 10.0 mi North 3.5 mph - N/A   Overcast
6:33 AM 55.4 °F 55.4 °F 100% 30.06 in 7.0 mi NNE 5.8 mph - N/A Rain Light Rain
6:53 AM 55.4 °F 55.4 °F 100% 30.06 in 10.0 mi NNE 6.9 mph - N/A   Overcast
7:13 AM 57.2 °F 55.4 °F 94% 30.08 in 10.0 mi NNE 9.2 mph - N/A   Overcast
7:33 AM 57.2 °F 55.4 °F 94% 30.08 in 10.0 mi North 8.1 mph - N/A   Overcast
7:53 AM 55.4 °F 55.4 °F 100% 30.10 in 10.0 mi North 11.5 mph 17.3 mph N/A   Overcast
8:12 AM 55.4 °F 55.4 °F 100% 30.11 in 10.0 mi North 8.1 mph - N/A   Overcast
8:33 AM 53.6 °F 53.6 °F 100% 30.12 in 10.0 mi North 12.7 mph 18.4 mph N/A   Overcast
8:53 AM 53.6 °F 53.6 °F 100% 30.13 in 10.0 mi NNE 10.4 mph - N/A   Overcast
9:13 AM 53.6 °F 53.6 °F 100% 30.15 in 10.0 mi North 12.7 mph 18.4 mph N/A   Overcast
9:33 AM 51.8 °F 51.8 °F 100% 30.16 in 10.0 mi North 12.7 mph - N/A   Overcast
9:53 AM 51.8 °F 51.8 °F 100% 30.18 in 10.0 mi NE 8.1 mph - N/A   Overcast
10:12 AM 51.8 °F 51.8 °F 100% 30.19 in 10.0 mi North 11.5 mph 18.4 mph N/A   Overcast
10:33 AM 51.8 °F 51.8 °F 100% 30.20 in 10.0 mi NNE 8.1 mph - N/A   Overcast
10:52 AM 51.8 °F 50.0 °F 94% 30.21 in 10.0 mi NNE 6.9 mph - N/A   Overcast
11:13 AM 51.8 °F 50.0 °F 94% 30.22 in 10.0 mi NNE 6.9 mph - N/A   Overcast
11:33 AM 51.8 °F 48.2 °F 88% 30.23 in 10.0 mi NNE 9.2 mph - N/A   Overcast
11:52 AM 51.8 °F 48.2 °F 88% 30.24 in 10.0 mi North 9.2 mph 17.3 mph N/A   Overcast
12:12 PM 51.8 °F 48.2 °F 88% 30.24 in 10.0 mi NNE 9.2 mph 16.1 mph N/A   Overcast
12:32 PM 51.8 °F 48.2 °F 88% 30.25 in 10.0 mi NE 8.1 mph - N/A   Overcast
12:53 PM 53.6 °F 46.4 °F 77% 30.25 in 10.0 mi North 12.7 mph 16.1 mph N/A   Overcast
1:13 PM 55.4 °F 46.4 °F 72% 30.26 in 10.0 mi North 10.4 mph 19.6 mph N/A   Overcast
1:33 PM 55.4 °F 46.4 °F 72% 30.26 in 10.0 mi NNE 10.4 mph - N/A   Overcast
1:53 PM 55.4 °F 46.4 °F 72% 30.27 in 10.0 mi North 10.4 mph - N/A   Overcast
2:13 PM 55.4 °F 44.6 °F 67% 30.27 in 10.0 mi North 10.4 mph - N/A   Overcast
2:32 PM 55.4 °F 46.4 °F 72% 30.27 in 10.0 mi North 9.2 mph - N/A   Overcast
2:53 PM 57.2 °F 46.4 °F 67% 30.28 in 10.0 mi North 6.9 mph - N/A   Overcast
3:13 PM 57.2 °F 46.4 °F 67% 30.28 in 10.0 mi NNE 9.2 mph - N/A   Overcast
3:32 PM 57.2 °F 46.4 °F 67% 30.29 in 10.0 mi North 8.1 mph - N/A   Mostly Cloudy
3:53 PM 57.2 °F 44.6 °F 63% 30.29 in 10.0 mi North 5.8 mph 9.2 mph N/A   Scattered Clouds
4:12 PM 59.0 °F 46.4 °F 63% 30.29 in 10.0 mi North 6.9 mph - N/A   Scattered Clouds
4:32 PM 57.2 °F 46.4 °F 67% 30.29 in 10.0 mi North 8.1 mph - N/A   Clear
4:53 PM 57.2 °F 46.4 °F 67% 30.29 in 10.0 mi North 8.1 mph - N/A   Scattered Clouds
5:13 PM 57.2 °F 46.4 °F 67% 30.30 in 10.0 mi North 8.1 mph - N/A   Scattered Clouds
5:32 PM 57.2 °F 46.4 °F 67% 30.30 in 10.0 mi North 9.2 mph - N/A   Clear
5:53 PM 57.2 °F 46.4 °F 67% 30.30 in 10.0 mi North 5.8 mph - N/A   Clear
6:12 PM 57.2 °F 44.6 °F 63% 30.30 in 10.0 mi North 5.8 mph - N/A   Clear
6:33 PM 57.2 °F 44.6 °F 63% 30.31 in 10.0 mi North 4.6 mph - N/A   Clear
6:53 PM 55.4 °F 44.6 °F 67% 30.31 in 10.0 mi NNE 4.6 mph - N/A   Clear
7:12 PM 53.6 °F 44.6 °F 72% 30.31 in 10.0 mi NNE 3.5 mph - N/A   Clear
7:33 PM 50.0 °F 44.6 °F 82% 30.31 in 10.0 mi Calm Calm - N/A   Clear
7:52 PM 46.4 °F 44.6 °F 93% 30.32 in 10.0 mi Calm Calm - N/A   Clear
8:13 PM 46.4 °F 44.6 °F 93% 30.32 in 10.0 mi Calm Calm - N/A   Clear
8:32 PM 46.4 °F 44.6 °F 93% 30.33 in 10.0 mi Calm Calm - N/A   Clear
8:53 PM 44.6 °F 44.6 °F 100% 30.33 in 10.0 mi Calm Calm - N/A   Clear
9:12 PM 44.6 °F 42.8 °F 93% 30.33 in 10.0 mi Calm Calm - N/A   Clear
9:33 PM 42.8 °F 42.8 °F 100% 30.34 in 10.0 mi Calm Calm - N/A   Clear
9:52 PM 42.8 °F 42.8 °F 100% 30.34 in 10.0 mi Calm Calm - N/A   Clear
10:13 PM 42.8 °F 42.8 °F 100% 30.34 in 10.0 mi Calm Calm - N/A   Clear
10:32 PM 41.0 °F 39.2 °F 93% 30.35 in 10.0 mi Calm Calm - N/A   Clear
10:53 PM 39.2 °F 39.2 °F 100% 30.35 in 10.0 mi Calm Calm - N/A   Clear
11:12 PM 39.2 °F 39.2 °F 100% 30.36 in 2.5 mi Calm Calm - N/A   Clear
11:33 PM 39.2 °F 39.2 °F 100% 30.36 in 10.0 mi Calm Calm - N/A   Clear
11:53 PM 39.2 °F 39.2 °F 100% 30.37 in 10.0 mi Calm Calm - N/A   Clear